Regional Weather Roundup
Issued by NWS

Home | Current Version | Previous Version | Text Only | Print | Product List | Glossary On
Versions: 1 2 3 4 5 6 7 8 9 10 11 12 13 14 15 16 17 18 19 20 21 22 23 24 25 26 27 28
000
ASUS44 KLIX 210813
RWRLA
LOUISIANA WEATHER ROUNDUP
NATIONAL WEATHER SERVICE NEW ORLEANS LA
300 AM CDT SAT OCT 21 2017

NOTE: "FAIR" INDICATES FEW OR NO CLOUDS BELOW 12,000 FEET WITH NO
      SIGNIFICANT WEATHER AND/OR OBSTRUCTIONS TO VISIBILITY.
      SKY/WX - SKY CONDITION AND SIGNIFICANT WEATHER.
      TMP - AIR TEMPERATURE.    DP   - DEWPOINT TEMPERATURE.
      RH  - RELATIVE HUMIDITY.  PRES - PRESSURE.
      HX  - HEAT INDEX.         WCI  - WIND CHILL INDEX.

*  THESE STATIONS ARE NOT NWS OR FAA STATIONS AND ARE NOT UNDER
   NWS QUALITY CONTROL.

LAZ040-048-061>063-065-066-069-210900-
SOUTHEAST LOUISIANA

CITY           SKY/WX    TMP DP  RH WIND       PRES   REMARKS
N.O. INTL ARPT CLOUDY    76  71  85 SE14      30.03F
N.O. LAKEFRONT CLOUDY    76  70  82 SE9       30.04S
N.O. DOWNTOWN* FAIR      77  69  76 VRB7      30.04F
RESERVE*       FAIR      77  70  78 SE9       30.03S
SLIDELL        MOCLDY    69  67  93 CALM      30.04F
BATON ROUGE    MOCLDY    70  68  93 E8        30.03F
BOOTHVILLE     CLOUDY    81  70  69 SE10      30.03F
BELLE CHASSE   NOT AVBL
BOGALUSA*      FAIR      66  63  89 N5        30.07F
GALLIANO*      CLOUDY    77  69  75 SE7       30.01F
NEW ROADS*     CLOUDY    71  68  92 E7        30.03F
GONZALES*      PTSUNNY   73  71  93 CALM      30.02F
HAMMOND*       MOCLDY    70  66  88 E5        30.04F
HOUMA*         PTCLDY   N/A N/A N/A E6        30.02S
PORT FOURCHON* MOSUNNY   81  70  69 SE17G23   30.01F

$$

LAZ041-044-053-054-210900-
SOUTHWEST LOUISIANA

CITY           SKY/WX    TMP DP  RH WIND       PRES   REMARKS
LAKE CHARLES   CLOUDY    72  71  97 E9        29.98F
LAFAYETTE      CLOUDY    73  72  96 E3        30.01S
PATTERSON      CLOUDY    73  72  96 E8        30.01F
SALT POINT       N/A     75  72  90 VRB5      29.98F
NEW IBERIA     MOCLDY    72  70  93 E5        30.01F
CHENAULT AIRPK   N/A     71  70  98 E6        29.99F

$$

LAZ027-028-210900-
CENTRAL LOUISIANA

CITY           SKY/WX    TMP DP  RH WIND       PRES   REMARKS
FORT POLK      CLOUDY    70  68  94 E8        30.00F
ALEXANDRIA INT CLOUDY    72  68  87 SE9       30.01R
ALEXANDRIA     CLOUDY    68  67  96 CALM      30.03S

$$

LAZ001-002-210900-
NORTHWEST LOUISIANA

CITY           SKY/WX    TMP DP  RH WIND       PRES   REMARKS
SHREVEPORT     MOCLDY    69  67  93 S9        29.98F
BARKSDALE AFB  MOCLDY    66  65  96 SE9       29.97F
DTN SHREVEPORT CLOUDY    68  64  87 SE9       29.98F

$$

LAZ014-016-210900-
NORTHEAST LOUISIANA

CITY           SKY/WX    TMP DP  RH WIND       PRES   REMARKS
MONROE         CLOUDY    68  65  90 CALM      30.05S
TALLULAH       PTCLDY    68  64  87 SE6       30.06S

$$





USA.gov is the U.S. government's official web portal to all federal, state and local government web resources and services.